Time,TemperatureF,DewpointF,PressureIn,WindDirection,WindDirectionDegrees,WindSpeedMPH,WindSpeedGustMPH,Humidity,HourlyPrecipIn,Conditions,Clouds,dailyrainin,SoftwareType,DateUTC
2013-06-15 00:13:00,48.0,46.0,29.85,NNE,25,4.0,-999.0,92,-99.99,,,0.00,weatherlink.com 1.10,2013-06-15 07:13:00,
2013-06-15 00:28:00,47.8,46.0,29.85,NNW,342,6.0,-999.0,92,-99.99,,,0.00,weatherlink.com 1.10,2013-06-15 07:28:00,
2013-06-15 00:43:00,47.8,46.0,29.85,NNE,20,3.0,-999.0,92,-99.99,,,0.00,weatherlink.com 1.10,2013-06-15 07:43:00,
2013-06-15 00:58:00,47.8,46.0,29.85,NNE,24,4.0,-999.0,93,-99.99,,,0.00,weatherlink.com 1.10,2013-06-15 07:58:00,
2013-06-15 01:13:00,47.9,46.0,29.84,NNW,348,4.0,-999.0,93,-99.99,,,0.00,weatherlink.com 1.10,2013-06-15 08:13:00,
2013-06-15 01:28:00,47.7,46.0,29.84,NNE,17,3.0,-999.0,93,-99.99,,,0.00,weatherlink.com 1.10,2013-06-15 08:28:00,
2013-06-15 01:43:00,47.5,46.0,29.84,NNW,348,5.0,-999.0,93,-99.99,,,0.00,weatherlink.com 1.10,2013-06-15 08:43:00,
2013-06-15 01:58:00,47.5,46.0,29.84,North,350,5.0,-999.0,93,-99.99,,,0.00,weatherlink.com 1.10,2013-06-15 08:58:00,
2013-06-15 02:13:00,47.4,46.0,29.83,NNE,15,2.0,-999.0,93,-99.99,,,0.00,weatherlink.com 1.10,2013-06-15 09:13:00,
2013-06-15 02:28:00,47.3,45.0,29.84,NNE,24,2.0,-999.0,93,-99.99,,,0.00,weatherlink.com 1.10,2013-06-15 09:28:00,
2013-06-15 02:43:00,47.3,45.0,29.83,NNE,16,2.0,-999.0,93,-99.99,,,0.00,weatherlink.com 1.10,2013-06-15 09:43:00,
2013-06-15 02:58:00,47.2,45.0,29.83,North,355,3.0,-999.0,93,-99.99,,,0.00,weatherlink.com 1.10,2013-06-15 09:58:00,
2013-06-15 03:13:00,47.1,45.0,29.83,North,355,3.0,-999.0,93,-99.99,,,0.00,weatherlink.com 1.10,2013-06-15 10:13:00,
2013-06-15 03:28:00,46.9,45.0,29.83,NE,43,3.0,-999.0,93,-99.99,,,0.00,weatherlink.com 1.10,2013-06-15 10:28:00,
2013-06-15 03:43:00,47.0,45.0,29.83,NNE,28,4.0,-999.0,93,-99.99,,,0.00,weatherlink.com 1.10,2013-06-15 10:43:00,
2013-06-15 03:58:00,46.9,45.0,29.83,ENE,58,3.0,-999.0,93,-99.99,,,0.00,weatherlink.com 1.10,2013-06-15 10:58:00,
2013-06-15 04:13:00,47.1,46.0,29.83,NNE,18,7.0,-999.0,94,-99.99,,,0.00,weatherlink.com 1.10,2013-06-15 11:13:00,
2013-06-15 04:28:00,47.0,45.0,29.83,North,11,3.0,-999.0,93,-99.99,,,0.00,weatherlink.com 1.10,2013-06-15 11:28:00,
2013-06-15 04:43:00,46.8,45.0,29.83,NE,45,1.0,-999.0,93,-99.99,,,0.00,weatherlink.com 1.10,2013-06-15 11:43:00,
2013-06-15 04:58:00,46.9,45.0,29.84,North,355,7.0,-999.0,94,-99.99,,,0.00,weatherlink.com 1.10,2013-06-15 11:58:00,
2013-06-15 05:13:00,47.2,46.0,29.84,North,5,2.0,-999.0,94,-99.99,,,0.00,weatherlink.com 1.10,2013-06-15 12:13:00,
2013-06-15 05:28:00,47.5,46.0,29.84,NNE,12,2.0,-999.0,94,-99.99,,,0.00,weatherlink.com 1.10,2013-06-15 12:28:00,
2013-06-15 05:43:00,47.8,46.0,29.84,North,355,4.0,-999.0,94,-99.99,,,0.00,weatherlink.com 1.10,2013-06-15 12:43:00,
2013-06-15 05:58:00,47.8,46.0,29.85,North,351,6.0,-999.0,94,-99.99,,,0.00,weatherlink.com 1.10,2013-06-15 12:58:00,
2013-06-15 06:13:00,47.9,46.0,29.85,NE,43,3.0,-999.0,94,-99.99,,,0.00,weatherlink.com 1.10,2013-06-15 13:13:00,
2013-06-15 06:28:00,48.1,47.0,29.85,NNE,21,5.0,-999.0,94,-99.99,,,0.00,weatherlink.com 1.10,2013-06-15 13:28:00,
2013-06-15 06:43:00,48.3,47.0,29.86,NNE,13,5.0,-999.0,94,-99.99,,,0.00,weatherlink.com 1.10,2013-06-15 13:43:00,
2013-06-15 06:58:00,48.7,47.0,29.86,NW,325,11.0,-999.0,94,-99.99,,,0.00,weatherlink.com 1.10,2013-06-15 13:58:00,
2013-06-15 07:13:00,49.1,48.0,29.86,NNE,25,8.0,-999.0,94,-99.99,,,0.00,weatherlink.com 1.10,2013-06-15 14:13:00,
2013-06-15 07:28:00,49.5,48.0,29.86,NNW,340,10.0,-999.0,94,-99.99,,,0.00,weatherlink.com 1.10,2013-06-15 14:28:00,
2013-06-15 07:43:00,50.0,48.0,29.87,NNW,327,5.0,-999.0,94,-99.99,,,0.00,weatherlink.com 1.10,2013-06-15 14:43:00,
2013-06-15 07:58:00,50.2,49.0,29.87,NW,326,6.0,-999.0,94,-99.99,,,0.00,weatherlink.com 1.10,2013-06-15 14:58:00,
2013-06-15 08:14:00,50.4,49.0,29.87,NE,37,8.0,-999.0,94,-99.99,,,0.00,weatherlink.com 1.10,2013-06-15 15:14:00,
2013-06-15 08:28:00,50.8,49.0,29.87,NNW,329,7.0,-999.0,94,-99.99,,,0.00,weatherlink.com 1.10,2013-06-15 15:28:00,
2013-06-15 08:43:00,51.3,49.0,29.87,NW,322,9.0,-999.0,93,-99.99,,,0.00,weatherlink.com 1.10,2013-06-15 15:43:00,
2013-06-15 08:57:00,51.8,50.0,29.88,NW,321,12.0,-999.0,92,-99.99,,,0.00,weatherlink.com 1.10,2013-06-15 15:57:00,
2013-06-15 09:12:00,52.6,50.0,29.89,North,355,9.0,-999.0,90,-99.99,,,0.00,weatherlink.com 1.10,2013-06-15 16:12:00,
2013-06-15 09:28:00,52.8,50.0,29.89,NNW,340,11.0,-999.0,89,-99.99,,,0.00,weatherlink.com 1.10,2013-06-15 16:28:00,
2013-06-15 09:44:00,53.3,50.0,29.90,NNW,348,12.0,-999.0,89,-99.99,,,0.00,weatherlink.com 1.10,2013-06-15 16:44:00,
2013-06-15 09:58:00,53.6,50.0,29.90,NNW,345,5.0,-999.0,88,-99.99,,,0.00,weatherlink.com 1.10,2013-06-15 16:58:00,
2013-06-15 10:13:00,53.4,50.0,29.90,NNW,348,10.0,-999.0,88,-99.99,,,0.00,weatherlink.com 1.10,2013-06-15 17:13:00,
2013-06-15 10:28:00,53.7,50.0,29.91,NNW,337,13.0,-999.0,87,-99.99,,,0.00,weatherlink.com 1.10,2013-06-15 17:28:00,
2013-06-15 10:43:00,53.8,50.0,29.91,North,5,4.0,-999.0,87,-99.99,,,0.00,weatherlink.com 1.10,2013-06-15 17:43:00,
2013-06-15 10:58:00,54.1,50.0,29.91,North,360,3.0,-999.0,87,-99.99,,,0.00,weatherlink.com 1.10,2013-06-15 17:58:00,
2013-06-15 11:12:00,54.5,51.0,29.91,NW,305,8.0,-999.0,87,-99.99,,,0.00,weatherlink.com 1.10,2013-06-15 18:12:00,
2013-06-15 11:29:00,54.4,51.0,29.91,NNW,348,8.0,-999.0,87,-99.99,,,0.00,weatherlink.com 1.10,2013-06-15 18:29:00,
2013-06-15 11:43:00,54.8,51.0,29.91,NE,50,4.0,-999.0,86,-99.99,,,0.00,weatherlink.com 1.10,2013-06-15 18:43:00,
2013-06-15 11:58:00,55.1,51.0,29.92,NNW,338,15.0,-999.0,86,-99.99,,,0.00,weatherlink.com 1.10,2013-06-15 18:58:00,
2013-06-15 12:14:00,54.6,51.0,29.92,NNW,333,11.0,-999.0,87,-99.99,,,0.00,weatherlink.com 1.10,2013-06-15 19:14:00,
2013-06-15 12:28:00,55.2,51.0,29.92,NNW,343,11.0,-999.0,85,-99.99,,,0.00,weatherlink.com 1.10,2013-06-15 19:28:00,
2013-06-15 12:43:00,55.6,51.0,29.93,NW,317,10.0,-999.0,85,-99.99,,,0.00,weatherlink.com 1.10,2013-06-15 19:43:00,
2013-06-15 12:58:00,55.0,51.0,29.93,NE,38,7.0,-999.0,85,-99.99,,,0.00,weatherlink.com 1.10,2013-06-15 19:58:00,
2013-06-15 13:12:00,55.4,51.0,29.93,WNW,301,7.0,-999.0,85,-99.99,,,0.00,weatherlink.com 1.10,2013-06-15 20:12:00,
2013-06-15 13:29:00,56.0,51.0,29.93,NNW,327,6.0,-999.0,84,-99.99,,,0.00,weatherlink.com 1.10,2013-06-15 20:29:00,
2013-06-15 13:43:00,55.9,52.0,29.94,ESE,110,12.0,-999.0,85,-99.99,,,0.00,weatherlink.com 1.10,2013-06-15 20:43:00,
2013-06-15 13:59:00,55.9,51.0,29.94,NNW,344,5.0,-999.0,84,-99.99,,,0.00,weatherlink.com 1.10,2013-06-15 20:59:00,
2013-06-15 14:13:00,55.3,51.0,29.94,NNW,336,7.0,-999.0,85,-99.99,,,0.00,weatherlink.com 1.10,2013-06-15 21:13:00,
2013-06-15 14:28:00,55.6,51.0,29.94,NE,34,11.0,-999.0,85,-99.99,,,0.00,weatherlink.com 1.10,2013-06-15 21:28:00,
2013-06-15 14:43:00,55.5,51.0,29.94,North,360,13.0,-999.0,85,-99.99,,,0.00,weatherlink.com 1.10,2013-06-15 21:43:00,
2013-06-15 14:58:00,56.0,51.0,29.94,North,360,12.0,-999.0,84,-99.99,,,0.00,weatherlink.com 1.10,2013-06-15 21:58:00,
2013-06-15 15:12:00,55.4,51.0,29.94,NNW,340,11.0,-999.0,84,-99.99,,,0.00,weatherlink.com 1.10,2013-06-15 22:12:00,
2013-06-15 15:29:00,55.2,51.0,29.94,NW,313,10.0,-999.0,85,-99.99,,,0.00,weatherlink.com 1.10,2013-06-15 22:29:00,
2013-06-15 15:43:00,55.4,51.0,29.94,NNW,345,12.0,-999.0,85,-99.99,,,0.00,weatherlink.com 1.10,2013-06-15 22:43:00,
2013-06-15 15:58:00,55.1,51.0,29.94,NW,317,15.0,-999.0,85,-99.99,,,0.00,weatherlink.com 1.10,2013-06-15 22:58:00,
2013-06-15 16:14:00,54.9,51.0,29.94,NNE,19,7.0,-999.0,86,-99.99,,,0.00,weatherlink.com 1.10,2013-06-15 23:14:00,
2013-06-15 16:28:00,55.5,51.0,29.94,North,9,4.0,-999.0,85,-99.99,,,0.00,weatherlink.com 1.10,2013-06-15 23:28:00,
2013-06-15 16:43:00,55.2,51.0,29.94,NNW,327,11.0,-999.0,85,-99.99,,,0.00,weatherlink.com 1.10,2013-06-15 23:43:00,
2013-06-15 16:58:00,56.1,51.0,29.94,North,349,10.0,-999.0,84,-99.99,,,0.00,weatherlink.com 1.10,2013-06-15 23:58:00,
2013-06-15 17:13:00,55.8,51.0,29.94,NNE,28,4.0,-999.0,85,-99.99,,,0.00,weatherlink.com 1.10,2013-06-16 00:13:00,
2013-06-15 17:29:00,55.2,51.0,29.94,North,350,10.0,-999.0,85,-99.99,,,0.00,weatherlink.com 1.10,2013-06-16 00:29:00,
2013-06-15 17:43:00,54.6,51.0,29.94,NNE,24,12.0,-999.0,86,-99.99,,,0.00,weatherlink.com 1.10,2013-06-16 00:43:00,
2013-06-15 17:58:00,54.4,51.0,29.94,NNW,344,11.0,-999.0,87,-99.99,,,0.00,weatherlink.com 1.10,2013-06-16 00:58:00,
2013-06-15 18:12:00,53.7,50.0,29.94,North,9,7.0,-999.0,88,-99.99,,,0.00,weatherlink.com 1.10,2013-06-16 01:12:00,
2013-06-15 18:28:00,53.6,50.0,29.94,North,5,10.0,-999.0,88,-99.99,,,0.00,weatherlink.com 1.10,2013-06-16 01:28:00,
2013-06-15 18:43:00,53.5,50.0,29.94,North,360,5.0,-999.0,89,-99.99,,,0.00,weatherlink.com 1.10,2013-06-16 01:43:00,
2013-06-15 18:59:00,53.2,50.0,29.95,NW,304,10.0,-999.0,89,-99.99,,,0.00,weatherlink.com 1.10,2013-06-16 01:59:00,
2013-06-15 19:13:00,52.9,50.0,29.95,NE,44,4.0,-999.0,89,-99.99,,,0.00,weatherlink.com 1.10,2013-06-16 02:13:00,
2013-06-15 19:28:00,52.8,50.0,29.95,NNW,348,9.0,-999.0,90,-99.99,,,0.00,weatherlink.com 1.10,2013-06-16 02:28:00,
2013-06-15 19:42:00,52.6,50.0,29.95,NNE,25,5.0,-999.0,90,-99.99,,,0.00,weatherlink.com 1.10,2013-06-16 02:42:00,
2013-06-15 19:58:00,52.4,50.0,29.95,NNW,330,11.0,-999.0,90,-99.99,,,0.00,weatherlink.com 1.10,2013-06-16 02:58:00,
2013-06-15 20:14:00,52.2,49.0,29.95,NW,319,12.0,-999.0,90,-99.99,,,0.00,weatherlink.com 1.10,2013-06-16 03:14:00,
2013-06-15 20:28:00,52.0,50.0,29.95,North,355,6.0,-999.0,91,-99.99,,,0.00,weatherlink.com 1.10,2013-06-16 03:28:00,
2013-06-15 20:42:00,51.8,49.0,29.96,NW,319,14.0,-999.0,91,-99.99,,,0.00,weatherlink.com 1.10,2013-06-16 03:42:00,
2013-06-15 20:59:00,51.6,49.0,29.96,NNW,335,8.0,-999.0,91,-99.99,,,0.00,weatherlink.com 1.10,2013-06-16 03:59:00,
2013-06-15 21:13:00,51.5,49.0,29.97,North,355,10.0,-999.0,91,-99.99,,,0.00,weatherlink.com 1.10,2013-06-16 04:13:00,
2013-06-15 21:27:00,51.4,49.0,29.97,North,355,6.0,-999.0,92,-99.99,,,0.00,weatherlink.com 1.10,2013-06-16 04:27:00,
2013-06-15 21:43:00,51.4,49.0,29.98,North,355,10.0,-999.0,91,-99.99,,,0.00,weatherlink.com 1.10,2013-06-16 04:43:00,
2013-06-15 21:58:00,51.4,49.0,29.99,North,355,12.0,-999.0,92,-99.99,,,0.00,weatherlink.com 1.10,2013-06-16 04:58:00,
2013-06-15 22:13:00,51.4,49.0,29.99,NNW,338,10.0,-999.0,92,-99.99,,,0.00,weatherlink.com 1.10,2013-06-16 05:13:00,
2013-06-15 22:28:00,51.4,49.0,29.99,North,355,6.0,-999.0,91,-99.99,,,0.00,weatherlink.com 1.10,2013-06-16 05:28:00,
2013-06-15 22:42:00,51.4,49.0,30.00,North,350,7.0,-999.0,91,-99.99,,,0.00,weatherlink.com 1.10,2013-06-16 05:42:00,
2013-06-15 22:58:00,51.3,49.0,30.00,North,5,9.0,-999.0,91,-99.99,,,0.00,weatherlink.com 1.10,2013-06-16 05:58:00,
2013-06-15 23:12:00,51.2,49.0,30.00,NNE,15,12.0,-999.0,91,-99.99,,,0.00,weatherlink.com 1.10,2013-06-16 06:12:00,
2013-06-15 23:29:00,51.2,49.0,30.00,North,360,7.0,-999.0,91,-99.99,,,0.00,weatherlink.com 1.10,2013-06-16 06:29:00,
2013-06-15 23:44:00,51.2,49.0,30.00,NNW,336,14.0,-999.0,91,-99.99,,,0.00,weatherlink.com 1.10,2013-06-16 06:44:00,
2013-06-15 23:57:00,51.2,49.0,30.00,North,360,14.0,-999.0,91,-99.99,,,0.00,weatherlink.com 1.10,2013-06-16 06:57:00,